WGS F2 (USA 204)

Last updated on Nov. 18, 2019, 4:21 a.m. UTC

1 34713U 09017A   19321.12413740  .00000056  00000-0  00000+0 0  9993
2 34713   0.0157 305.0953 0000380   1.2586 214.4755  1.00269784 38838
UTC
Height (km)
Latitude
Longitude
Inclination
Orbital Period
UTC large
Height (km)
Speed (km/s)
/
Latitude / Longitude
Inclination (degrees)
Orbital Period (minutes)
Azimuth
Elevation
Range (km)
Doppler Factor
iOS Compass Heading
iOS Angle

Next 30 passes for location: Hong Kong

Rise time Rise Azimuth (degrees) Set time Set Azimuth (degrees) Duration Max altitude (degrees)

No matching passes for this satellites